Total_Precipitation_Accumulation
2.16 2.17 2.11 2.12 2.01 2.19 2.41 2.75 2.70 2.92 2.85 2.52 2.14 1.97 1.98 2.07 2.00 2.11 2.35 2.41 2.24 2.26 2.94 3.31 3.21 2.90 2.47 2.05 1.79 1.65 1.55 1.39 1.23 0.97 0.88 0.94 0.97 0.96 0.84 0.66 0.56 0.46 0.37
2.59 2.55 2.37 2.37 2.23 2.28 2.59 2.83 2.88 3.31 3.16 3.00 2.52 2.31 2.14 2.12 2.12 2.25 2.46 2.64 2.59 2.54 2.91 3.35 3.56 3.44 3.04 2.49 2.08 1.85 1.78 1.73 1.55 1.16 0.96 1.00 1.07 1.06 0.99 0.85 0.67 0.51 0.41
2.74 2.63 2.52 2.42 2.52 2.63 2.77 2.83 2.98 3.33 3.10 3.01 2.84 2.62 2.39 2.22 2.15 2.29 2.59 2.88 2.63 2.55 2.87 3.27 3.63 3.55 3.36 3.05 2.57 2.24 2.01 1.83 1.71 1.41 1.11 0.98 0.98 0.99 0.97 0.94 0.80 0.60 0.42
2.78 2.85 2.67 2.49 2.67 2.79 2.94 3.12 3.10 3.18 3.24 3.24 3.09 2.76 2.59 2.48 2.18 2.25 2.40 2.55 2.74 2.36 2.73 3.27 3.45 3.26 3.26 3.38 3.31 3.06 2.69 2.26 1.97 1.64 1.34 1.15 1.07 1.02 0.98 0.96 0.86 0.68 0.46
2.69 2.98 2.82 2.80 2.89 3.09 3.00 2.80 3.19 3.30 3.29 3.27 2.94 2.81 2.47 2.36 2.26 2.17 2.26 2.35 2.53 2.50 2.57 2.67 3.10 2.99 3.20 3.61 3.83 3.88 3.62 3.13 2.56 2.13 1.78 1.52 1.40 1.22 1.05 0.98 0.87 0.67 0.50
2.64 2.92 2.73 2.76 2.95 3.21 3.28 3.28 3.42 3.33 3.19 3.24 2.83 2.67 2.36 2.07 2.04 2.00 1.90 2.11 2.18 1.97 2.11 2.33 2.69 2.31 2.52 2.97 3.41 3.87 4.12 4.07 3.50 2.81 2.46 2.23 2.06 1.69 1.26 1.03 0.89 0.76 0.60
2.57 2.84 2.61 2.93 3.02 3.13 3.26 3.29 3.45 3.34 3.13 3.26 3.14 2.68 2.20 1.91 1.78 1.64 1.71 1.85 1.80 1.87 2.14 2.47 2.71 2.68 2.37 2.34 2.56 3.13 3.88 4.41 4.25 3.63 3.27 3.03 2.81 2.35 1.66 1.27 0.97 0.81 0.71
2.51 2.60 2.93 2.96 3.04 3.16 3.16 3.10 3.15 3.00 2.77 3.09 3.15 2.97 2.37 2.04 1.69 1.41 1.60 1.60 1.73 1.98 2.03 2.05 2.35 2.67 2.56 2.60 2.27 2.28 3.24 4.21 4.65 4.50 4.25 3.91 3.51 2.79 2.10 1.65 1.21 0.92 0.80
2.67 2.75 2.92 2.98 2.93 2.84 2.92 3.01 2.91 2.80 2.65 2.76 2.95 2.97 2.52 2.08 1.72 1.46 1.42 1.47 1.78 1.97 1.93 1.93 1.91 2.05 2.13 2.53 2.72 2.38 2.52 2.88 3.59 4.51 4.93 4.79 4.05 2.96 2.28 1.92 1.63 1.23 0.93
2.45 2.53 2.58 2.70 2.76 2.72 2.74 2.65 2.64 2.67 2.63 2.49 2.67 2.69 2.55 2.34 2.12 1.67 1.37 1.37 1.60 1.73 1.70 1.59 1.69 1.92 2.02 2.38 2.62 2.26 2.01 1.93 2.20 3.21 4.21 4.46 4.03 3.04 2.36 2.15 2.14 1.85 1.32
2.23 2.20 2.29 2.45 2.48 2.38 2.36 2.50 2.70 2.67 2.51 2.37 2.48 2.54 2.67 2.59 2.31 2.01 1.60 1.46 1.43 1.33 1.43 1.47 1.52 1.61 1.82 2.16 2.38 2.03 1.91 1.70 1.62 1.97 2.64 3.15 3.30 2.98 2.55 2.49 2.69 2.64 2.20
2.11 2.03 2.04 2.12 2.16 2.15 2.11 2.15 2.28 2.35 2.33 2.42 2.44 2.41 2.54 2.53 2.43 2.31 1.91 1.65 1.50 1.19 1.23 1.30 1.42 1.50 1.61 1.79 1.66 1.66 1.74 1.56 1.42 1.42 1.68 2.06 2.41 2.56 2.46 2.55 2.82 2.96 2.91
2.02 1.97 1.90 1.84 1.82 1.82 1.90 2.09 2.12 2.10 2.17 2.29 2.29 2.31 2.26 2.20 2.24 2.24 2.07 1.80 1.60 1.25 1.26 1.20 1.23 1.33 1.28 1.56 1.62 1.61 1.51 1.39 1.31 1.30 1.35 1.44 1.67 1.88 2.08 2.25 2.55 2.85 3.07
1.99 1.86 1.72 1.63 1.57 1.58 1.67 1.88 2.03 2.01 2.09 2.14 2.06 2.13 2.03 1.93 2.04 2.04 2.01 2.03 1.87 1.69 1.64 1.47 1.19 1.15 1.21 1.30 1.38 1.41 1.31 1.25 1.12 1.08 1.08 1.11 1.22 1.36 1.51 1.73 1.97 2.15 2.33
1.65 1.59 1.53 1.49 1.44 1.48 1.55 1.59 1.71 1.70 1.78 1.81 1.87 1.84 1.76 1.75 1.83 1.87 1.96 2.05 2.03 1.90 1.86 1.74 1.36 1.13 1.13 1.24 1.43 1.26 1.18 1.10 1.01 0.94 0.87 0.88 0.91 1.00 1.09 1.20 1.39 1.56 1.64
1.59 1.46 1.42 1.40 1.36 1.33 1.35 1.40 1.44 1.48 1.47 1.48 1.63 1.64 1.62 1.63 1.73 1.76 1.82 1.96 2.07 2.09 1.93 1.73 1.53 1.24 1.23 1.16 1.28 1.23 1.21 1.12 0.95 0.82 0.73 0.72 0.76 0.84 0.92 0.98 1.05 1.17 1.23
1.56 1.51 1.43 1.39 1.28 1.20 1.19 1.21 1.19 1.29 1.29 1.27 1.33 1.35 1.41 1.51 1.66 1.70 1.73 1.79 1.99 2.15 2.05 1.94 1.79 1.65 1.51 1.37 1.20 1.18 1.21 1.13 0.95 0.80 0.66 0.62 0.66 0.69 0.73 0.81 0.91 1.01 1.09
1.29 1.26 1.24 1.29 1.30 1.28 1.25 1.20 1.14 1.13 1.17 1.20 1.26 1.33 1.36 1.49 1.62 1.59 1.67 1.75 1.91 2.14 2.21 2.34 2.36 2.11 1.81 1.58 1.46 1.29 1.05 0.96 0.97 0.82 0.67 0.59 0.57 0.60 0.63 0.68 0.75 0.88 1.00
1.22 1.20 1.19 1.19 1.18 1.26 1.36 1.38 1.32 1.30 1.31 1.23 1.28 1.35 1.30 1.33 1.41 1.44 1.55 1.68 1.83 1.99 2.18 2.27 2.38 2.19 2.00 1.70 1.71 1.50 1.23 1.17 0.94 0.88 0.76 0.64 0.58 0.58 0.60 0.65 0.70 0.76 0.84
1.26 1.25 1.19 1.16 1.16 1.14 1.20 1.32 1.36 1.34 1.29 1.24 1.24 1.21 1.14 1.14 1.22 1.31 1.37 1.54 1.71 1.88 2.00 2.02 2.13 2.19 2.21 2.16 2.10 1.88 1.69 1.48 1.21 0.95 0.90 0.74 0.67 0.63 0.60 0.60 0.63 0.71 0.82
1.19 1.27 1.18 1.13 1.14 1.15 1.10 1.12 1.22 1.22 1.21 1.17 1.15 1.07 0.94 0.93 0.97 1.02 1.08 1.33 1.54 1.69 1.84 1.93 2.03 2.19 2.29 2.41 2.27 2.13 1.99 1.86 1.59 1.36 1.33 1.04 0.90 0.76 0.65 0.62 0.62 0.64 0.71
1.16 1.17 1.13 1.12 1.09 0.95 0.97 0.96 0.96 1.01 1.06 1.06 1.07 1.07 0.94 0.81 0.77 0.81 0.83 0.97 1.18 1.36 1.57 1.81 1.97 2.18 2.25 2.23 2.34 2.31 2.22 2.07 1.92 1.72 1.68 1.63 1.46 1.30 1.04 0.78 0.72 0.63 0.59
1.12 1.10 1.06 1.05 1.04 0.99 0.86 0.79 0.79 0.88 0.97 0.99 1.01 1.04 0.89 0.78 0.79 0.72 0.78 0.85 0.89 0.95 1.08 1.42 1.69 1.81 1.83 1.83 2.06 2.22 2.22 2.14 2.09 1.96 1.97 2.01 1.88 1.63 1.27 1.06 0.94 0.76 0.66
1.06 1.10 1.04 1.03 1.07 1.00 0.87 0.78 0.71 0.67 0.80 0.88 0.89 0.93 0.94 0.95 0.88 0.84 0.82 0.84 0.80 0.81 0.84 0.90 1.05 1.18 1.35 1.51 1.73 2.01 2.24 2.21 2.21 2.17 2.11 2.21 2.10 1.94 1.58 1.23 1.02 0.81 0.74
1.09 1.09 1.09 1.10 1.10 1.10 1.00 0.86 0.79 0.80 0.90 0.92 0.93 0.91 0.93 0.97 0.93 0.78 0.76 0.83 0.87 0.89 0.79 0.78 0.78 0.88 1.01 1.15 1.33 1.57 1.84 2.13 2.37 2.39 2.18 2.21 2.16 2.17 2.11 1.69 1.27 1.02 0.81
1.18 1.15 1.21 1.25 1.22 1.26 1.10 0.88 0.81 0.87 1.01 1.04 1.10 1.05 0.92 0.82 0.79 0.65 0.67 0.79 0.80 0.80 0.74 0.73 0.73 0.73 0.77 0.90 1.03 1.23 1.44 1.69 1.93 2.10 2.08 2.15 2.26 2.51 2.63 2.20 1.64 1.20 0.99